TimeCDT,TemperatureF,Dew PointF,Humidity,Sea Level PressureIn,VisibilityMPH,Wind Direction,Wind SpeedMPH,Gust SpeedMPH,PrecipitationIn,Events,Conditions,WindDirDegrees,DateUTC
12:56 AM,51.1,46.9,86,30.04,10.0,WNW,8.1,-,N/A,,Clear,290,2013-09-20 05:56:00
1:56 AM,52.0,46.0,80,30.05,10.0,WNW,9.2,-,N/A,,Clear,300,2013-09-20 06:56:00
2:56 AM,50.0,45.0,83,30.05,10.0,WNW,9.2,-,N/A,,Clear,290,2013-09-20 07:56:00
3:56 AM,48.9,44.1,83,30.05,10.0,WNW,10.4,-,N/A,,Clear,290,2013-09-20 08:56:00
4:56 AM,46.9,43.0,86,30.06,10.0,West,8.1,-,N/A,,Clear,280,2013-09-20 09:56:00
5:56 AM,46.0,42.1,86,30.07,10.0,WNW,9.2,-,N/A,,Clear,290,2013-09-20 10:56:00
6:56 AM,45.0,41.0,86,30.09,10.0,West,6.9,-,N/A,,Clear,280,2013-09-20 11:56:00
7:56 AM,46.9,42.1,83,30.10,10.0,WNW,10.4,-,N/A,,Clear,290,2013-09-20 12:56:00
8:56 AM,52.0,43.0,71,30.09,10.0,WNW,12.7,-,N/A,,Clear,300,2013-09-20 13:56:00
9:56 AM,57.0,43.0,59,30.09,10.0,NW,16.1,25.3,N/A,,Clear,310,2013-09-20 14:56:00
10:56 AM,61.0,43.0,52,30.10,10.0,NW,15.0,-,N/A,,Clear,320,2013-09-20 15:56:00
11:56 AM,64.0,42.1,45,30.08,10.0,NW,18.4,25.3,N/A,,Clear,320,2013-09-20 16:56:00
12:56 PM,66.0,43.0,43,30.06,10.0,NNW,16.1,-,N/A,,Clear,330,2013-09-20 17:56:00
1:56 PM,68.0,42.1,39,30.04,10.0,WNW,20.7,27.6,N/A,,Clear,290,2013-09-20 18:56:00
2:56 PM,68.0,42.1,39,30.03,10.0,NW,16.1,21.9,N/A,,Clear,320,2013-09-20 19:56:00
3:56 PM,70.0,41.0,35,30.00,10.0,WNW,12.7,-,N/A,,Clear,300,2013-09-20 20:56:00
4:56 PM,70.0,39.9,33,30.00,10.0,WNW,12.7,20.7,N/A,,Clear,300,2013-09-20 21:56:00
5:56 PM,69.1,39.9,35,29.99,10.0,NW,13.8,-,N/A,,Clear,310,2013-09-20 22:56:00
6:56 PM,66.0,41.0,40,30.00,10.0,NNW,6.9,-,N/A,,Clear,330,2013-09-20 23:56:00
7:56 PM,60.1,41.0,49,30.01,10.0,North,3.5,-,N/A,,Clear,360,2013-09-21 00:56:00
8:56 PM,54.0,41.0,62,30.02,10.0,Calm,Calm,-,N/A,,Clear,0,2013-09-21 01:56:00
9:56 PM,46.9,41.0,80,30.02,10.0,Calm,Calm,-,N/A,,Clear,0,2013-09-21 02:56:00
10:56 PM,44.1,39.9,85,30.03,10.0,Calm,Calm,-,N/A,,Clear,0,2013-09-21 03:56:00
11:56 PM,43.0,39.9,89,30.03,10.0,Calm,Calm,-,N/A,,Clear,0,2013-09-21 04:56:00